Year,Month,Day,Hour,Minute,Value (Times are PST for temperature in C)
2009,04,15,00,00,5.70
2009,04,15,00,01,5.70
2009,04,15,00,02,5.70
2009,04,15,00,03,5.70
2009,04,15,00,04,5.70
2009,04,15,00,05,5.70
2009,04,15,00,06,5.70
2009,04,15,00,07,5.60
2009,04,15,00,08,5.60
2009,04,15,00,09,5.60
2009,04,15,00,10,5.50
2009,04,15,00,11,5.50
2009,04,15,00,12,5.50
2009,04,15,00,13,5.50
2009,04,15,00,14,5.50
2009,04,15,00,15,5.40
2009,04,15,00,16,5.40
2009,04,15,00,17,5.40
2009,04,15,00,18,5.40
2009,04,15,00,19,5.40
2009,04,15,00,20,5.40
2009,04,15,00,21,5.40
2009,04,15,00,22,5.30
2009,04,15,00,23,5.30
2009,04,15,00,24,5.30
2009,04,15,00,25,5.30
2009,04,15,00,26,5.30
2009,04,15,00,27,5.30
2009,04,15,00,28,5.30
2009,04,15,00,29,5.30
2009,04,15,00,30,5.30
2009,04,15,00,31,5.30
2009,04,15,00,32,5.30
2009,04,15,00,33,5.30
2009,04,15,00,34,5.30
2009,04,15,00,35,5.30
2009,04,15,00,36,5.30
2009,04,15,00,37,5.20
2009,04,15,00,38,5.20
2009,04,15,00,39,5.20
2009,04,15,00,40,5.20
2009,04,15,00,41,5.10
2009,04,15,00,42,5.10
2009,04,15,00,43,5.10
2009,04,15,00,44,5.10
2009,04,15,00,45,5.10
2009,04,15,00,46,5.10
2009,04,15,00,47,5.10
2009,04,15,00,48,5.00
2009,04,15,00,49,4.90
2009,04,15,00,50,4.90
2009,04,15,00,51,4.90
2009,04,15,00,52,4.90
2009,04,15,00,53,4.90
2009,04,15,00,54,4.90
2009,04,15,00,55,4.90
2009,04,15,00,56,4.80
2009,04,15,00,57,4.80
2009,04,15,00,58,4.80
2009,04,15,00,59,4.70
2009,04,15,01,00,4.70
2009,04,15,01,01,4.60
2009,04,15,01,02,4.60
2009,04,15,01,03,4.60
2009,04,15,01,04,4.60
2009,04,15,01,05,4.50
2009,04,15,01,06,4.50
2009,04,15,01,07,4.50
2009,04,15,01,08,4.40
2009,04,15,01,09,4.40
2009,04,15,01,10,4.40
2009,04,15,01,11,4.40
2009,04,15,01,12,4.40
2009,04,15,01,13,4.40
2009,04,15,01,14,4.40
2009,04,15,01,15,4.40
2009,04,15,01,16,4.40
2009,04,15,01,17,4.40
2009,04,15,01,18,4.40
2009,04,15,01,19,4.40
2009,04,15,01,20,4.40
2009,04,15,01,21,4.40
2009,04,15,01,22,4.40
2009,04,15,01,23,4.30
2009,04,15,01,24,4.30
2009,04,15,01,25,4.30
2009,04,15,01,26,4.30
2009,04,15,01,27,4.20
2009,04,15,01,28,4.20
2009,04,15,01,29,4.20
2009,04,15,01,30,4.20
2009,04,15,01,31,4.20
2009,04,15,01,32,4.20
2009,04,15,01,33,4.20
2009,04,15,01,34,4.20
2009,04,15,01,35,4.10
2009,04,15,01,36,4.10
2009,04,15,01,37,4.10
2009,04,15,01,38,4.10
2009,04,15,01,39,4.10
2009,04,15,01,40,4.00
2009,04,15,01,41,4.00
2009,04,15,01,42,4.00
2009,04,15,01,43,4.00
2009,04,15,01,44,3.90
2009,04,15,01,45,3.90
2009,04,15,01,46,3.90
2009,04,15,01,47,3.80
2009,04,15,01,48,3.80
2009,04,15,01,49,3.80
2009,04,15,01,50,3.80
2009,04,15,01,51,3.80
2009,04,15,01,52,3.70
2009,04,15,01,53,3.70
2009,04,15,01,54,3.70
2009,04,15,01,55,3.60
2009,04,15,01,56,3.60
2009,04,15,01,57,3.60
2009,04,15,01,58,3.60
2009,04,15,01,59,3.60
2009,04,15,02,00,3.60
2009,04,15,02,01,3.60
2009,04,15,02,02,3.60
2009,04,15,02,03,3.60
2009,04,15,02,04,3.60
2009,04,15,02,05,3.60
2009,04,15,02,06,3.60
2009,04,15,02,07,3.60
2009,04,15,02,08,3.60
2009,04,15,02,09,3.60
2009,04,15,02,10,3.60
2009,04,15,02,11,3.60
2009,04,15,02,12,3.60
2009,04,15,02,13,3.60
2009,04,15,02,14,3.60
2009,04,15,02,15,3.70
2009,04,15,02,16,3.70
2009,04,15,02,17,3.70
2009,04,15,02,18,3.70
2009,04,15,02,19,3.70
2009,04,15,02,20,3.70
2009,04,15,02,21,3.70
2009,04,15,02,22,3.70
2009,04,15,02,23,3.70
2009,04,15,02,24,3.70
2009,04,15,02,25,3.70
2009,04,15,02,26,3.70
2009,04,15,02,27,3.70
2009,04,15,02,28,3.70
2009,04,15,02,29,3.70
2009,04,15,02,30,3.70
2009,04,15,02,31,3.70
2009,04,15,02,32,3.70
2009,04,15,02,33,3.70
2009,04,15,02,34,3.70
2009,04,15,02,35,3.70
2009,04,15,02,36,3.70
2009,04,15,02,37,3.70
2009,04,15,02,38,3.70
2009,04,15,02,39,3.70
2009,04,15,02,40,3.70
2009,04,15,02,41,3.70
2009,04,15,02,42,3.70
2009,04,15,02,43,3.70
2009,04,15,02,44,3.70
2009,04,15,02,45,3.70
2009,04,15,02,46,3.70
2009,04,15,02,47,3.60
2009,04,15,02,48,3.60
2009,04,15,02,49,3.60
2009,04,15,02,50,3.60
2009,04,15,02,51,3.60
2009,04,15,02,52,3.60
2009,04,15,02,53,3.60
2009,04,15,02,54,3.60
2009,04,15,02,55,3.60
2009,04,15,02,56,3.60
2009,04,15,02,57,3.60
2009,04,15,02,58,3.60
2009,04,15,02,59,3.60
2009,04,15,03,00,3.60
2009,04,15,03,01,3.70
2009,04,15,03,02,3.70
2009,04,15,03,03,3.70
2009,04,15,03,04,3.70
2009,04,15,03,05,3.80
2009,04,15,03,06,3.80
2009,04,15,03,07,3.80
2009,04,15,03,08,3.80
2009,04,15,03,09,3.80
2009,04,15,03,10,3.80
2009,04,15,03,11,3.80
2009,04,15,03,12,3.90
2009,04,15,03,13,3.90
2009,04,15,03,14,3.90
2009,04,15,03,15,3.90
2009,04,15,03,16,3.90
2009,04,15,03,17,3.90
2009,04,15,03,18,3.90
2009,04,15,03,19,3.90
2009,04,15,03,20,3.90
2009,04,15,03,21,3.90
2009,04,15,03,22,3.90
2009,04,15,03,23,3.90
2009,04,15,03,24,4.00
2009,04,15,03,25,3.90
2009,04,15,03,26,3.90
2009,04,15,03,27,3.90
2009,04,15,03,28,3.90
2009,04,15,03,29,3.90
2009,04,15,03,30,3.90
2009,04,15,03,31,3.90
2009,04,15,03,32,3.90
2009,04,15,03,33,3.80
2009,04,15,03,34,3.80
2009,04,15,03,35,3.80
2009,04,15,03,36,3.80
2009,04,15,03,37,3.80
2009,04,15,03,38,3.70
2009,04,15,03,39,3.70
2009,04,15,03,40,3.70
2009,04,15,03,41,3.60
2009,04,15,03,42,3.60
2009,04,15,03,43,3.60
2009,04,15,03,44,3.60
2009,04,15,03,45,3.60
2009,04,15,03,46,3.50
2009,04,15,03,47,3.50
2009,04,15,03,48,3.50
2009,04,15,03,49,3.40
2009,04,15,03,50,3.40
2009,04,15,03,51,3.30
2009,04,15,03,52,3.30
2009,04,15,03,53,3.30
2009,04,15,03,54,3.30
2009,04,15,03,55,3.30
2009,04,15,03,56,3.30
2009,04,15,03,57,3.20
2009,04,15,03,58,3.30
2009,04,15,03,59,3.30
2009,04,15,04,00,3.30
2009,04,15,04,01,3.30
2009,04,15,04,02,3.30
2009,04,15,04,03,3.30
2009,04,15,04,04,3.30
2009,04,15,04,05,3.30
2009,04,15,04,06,3.30
2009,04,15,04,07,3.30
2009,04,15,04,08,3.40
2009,04,15,04,09,3.40
2009,04,15,04,10,3.50
2009,04,15,04,11,3.50
2009,04,15,04,12,3.60
2009,04,15,04,13,3.60
2009,04,15,04,14,3.70
2009,04,15,04,15,3.70
2009,04,15,04,16,3.70
2009,04,15,04,17,3.70
2009,04,15,04,18,3.70
2009,04,15,04,19,3.70
2009,04,15,04,20,3.70
2009,04,15,04,21,3.60
2009,04,15,04,22,3.60
2009,04,15,04,23,3.50
2009,04,15,04,24,3.50
2009,04,15,04,25,3.50
2009,04,15,04,26,3.40
2009,04,15,04,27,3.30
2009,04,15,04,28,3.30
2009,04,15,04,29,3.20
2009,04,15,04,30,3.20
2009,04,15,04,31,3.20
2009,04,15,04,32,3.20
2009,04,15,04,33,3.20
2009,04,15,04,34,3.20
2009,04,15,04,35,3.20
2009,04,15,04,36,3.20
2009,04,15,04,37,3.10
2009,04,15,04,38,3.10
2009,04,15,04,39,3.10
2009,04,15,04,40,3.10
2009,04,15,04,41,3.10
2009,04,15,04,42,3.10
2009,04,15,04,43,3.10
2009,04,15,04,44,3.10
2009,04,15,04,45,3.10
2009,04,15,04,46,3.10
2009,04,15,04,47,3.20
2009,04,15,04,48,3.20
2009,04,15,04,49,3.20
2009,04,15,04,50,3.20
2009,04,15,04,51,3.20
2009,04,15,04,52,3.20
2009,04,15,04,53,3.20
2009,04,15,04,54,3.30
2009,04,15,04,55,3.30
2009,04,15,04,56,3.30
2009,04,15,04,57,3.30
2009,04,15,04,58,3.30
2009,04,15,04,59,3.30
2009,04,15,05,00,3.30
2009,04,15,05,01,3.30
2009,04,15,05,02,3.30
2009,04,15,05,03,3.30
2009,04,15,05,04,3.30
2009,04,15,05,05,3.30
2009,04,15,05,06,3.30
2009,04,15,05,07,3.30
2009,04,15,05,08,3.30
2009,04,15,05,09,3.30
2009,04,15,05,10,3.30
2009,04,15,05,11,3.40
2009,04,15,05,12,3.40
2009,04,15,05,13,3.40
2009,04,15,05,14,3.40
2009,04,15,05,15,3.40
2009,04,15,05,16,3.40
2009,04,15,05,17,3.40
2009,04,15,05,18,3.30
2009,04,15,05,19,3.30
2009,04,15,05,20,3.30
2009,04,15,05,21,3.30
2009,04,15,05,22,3.30
2009,04,15,05,23,3.30
2009,04,15,05,24,3.30
2009,04,15,05,25,3.30
2009,04,15,05,26,3.30
2009,04,15,05,27,3.30
2009,04,15,05,28,3.30
2009,04,15,05,29,3.30
2009,04,15,05,30,3.30
2009,04,15,05,31,3.30
2009,04,15,05,32,3.30
2009,04,15,05,33,3.30
2009,04,15,05,34,3.30
2009,04,15,05,35,3.30
2009,04,15,05,36,3.30
2009,04,15,05,37,3.30
2009,04,15,05,38,3.30
2009,04,15,05,39,3.20
2009,04,15,05,40,3.20
2009,04,15,05,41,3.20
2009,04,15,05,42,3.10
2009,04,15,05,43,3.10
2009,04,15,05,44,3.10
2009,04,15,05,45,3.10
2009,04,15,05,46,3.10
2009,04,15,05,47,2.90
2009,04,15,05,48,2.90
2009,04,15,05,49,2.90
2009,04,15,05,50,2.90
2009,04,15,05,51,2.90
2009,04,15,05,52,2.90
2009,04,15,05,53,2.90
2009,04,15,05,54,2.90
2009,04,15,05,55,2.80
2009,04,15,05,56,2.80
2009,04,15,05,57,2.70
2009,04,15,05,58,2.70
2009,04,15,05,59,2.70
2009,04,15,06,00,2.70
2009,04,15,06,01,2.60
2009,04,15,06,02,2.60
2009,04,15,06,03,2.50
2009,04,15,06,04,2.50
2009,04,15,06,05,2.40
2009,04,15,06,06,2.30
2009,04,15,06,07,2.20
2009,04,15,06,08,2.20
2009,04,15,06,09,2.20
2009,04,15,06,10,2.20
2009,04,15,06,11,2.20
2009,04,15,06,12,2.20
2009,04,15,06,13,2.20
2009,04,15,06,14,2.20
2009,04,15,06,15,2.20
2009,04,15,06,16,2.20
2009,04,15,06,17,2.20
2009,04,15,06,18,2.20
2009,04,15,06,19,2.10
2009,04,15,06,20,2.10
2009,04,15,06,21,2.10
2009,04,15,06,22,2.10
2009,04,15,06,23,2.10
2009,04,15,06,24,2.10
2009,04,15,06,25,2.10
2009,04,15,06,26,2.00
2009,04,15,06,27,2.00
2009,04,15,06,28,2.00
2009,04,15,06,29,2.00
2009,04,15,06,30,2.00
2009,04,15,06,31,2.00
2009,04,15,06,32,2.00
2009,04,15,06,33,2.10
2009,04,15,06,34,2.10
2009,04,15,06,35,2.10
2009,04,15,06,36,2.10
2009,04,15,06,37,2.10
2009,04,15,06,38,2.10
2009,04,15,06,39,2.20
2009,04,15,06,40,2.20
2009,04,15,06,41,2.20
2009,04,15,06,42,2.20
2009,04,15,06,43,2.20
2009,04,15,06,44,2.20
2009,04,15,06,45,2.20
2009,04,15,06,46,2.20
2009,04,15,06,47,2.20
2009,04,15,06,48,2.20
2009,04,15,06,49,2.20
2009,04,15,06,50,2.30
2009,04,15,06,51,2.30
2009,04,15,06,52,2.40
2009,04,15,06,53,2.40
2009,04,15,06,54,2.40
2009,04,15,06,55,2.40
2009,04,15,06,56,2.50
2009,04,15,06,57,2.50
2009,04,15,06,58,2.60
2009,04,15,06,59,2.70
2009,04,15,07,00,2.80
2009,04,15,07,01,2.90
2009,04,15,07,02,3.00
2009,04,15,07,03,3.10
2009,04,15,07,04,3.10
2009,04,15,07,05,3.10
2009,04,15,07,06,3.20
2009,04,15,07,07,3.20
2009,04,15,07,08,3.20
2009,04,15,07,09,3.20
2009,04,15,07,10,3.10
2009,04,15,07,11,3.10
2009,04,15,07,12,3.10
2009,04,15,07,13,3.10
2009,04,15,07,14,3.20
2009,04,15,07,15,3.20
2009,04,15,07,16,3.30
2009,04,15,07,17,3.40
2009,04,15,07,18,3.50
2009,04,15,07,19,3.70
2009,04,15,07,20,3.80
2009,04,15,07,21,3.80
2009,04,15,07,22,3.90
2009,04,15,07,23,3.90
2009,04,15,07,24,4.00
2009,04,15,07,25,4.00
2009,04,15,07,26,4.00
2009,04,15,07,27,4.00
2009,04,15,07,28,4.00
2009,04,15,07,29,4.00
2009,04,15,07,30,3.90
2009,04,15,07,31,3.90
2009,04,15,07,32,3.90
2009,04,15,07,33,4.00
2009,04,15,07,34,4.00
2009,04,15,07,35,4.00
2009,04,15,07,36,4.10
2009,04,15,07,37,4.10
2009,04,15,07,38,4.20
2009,04,15,07,39,4.20
2009,04,15,07,40,4.30
2009,04,15,07,41,4.40
2009,04,15,07,42,4.40
2009,04,15,07,43,4.50
2009,04,15,07,44,4.50
2009,04,15,07,45,4.60
2009,04,15,07,46,4.60
2009,04,15,07,47,4.70
2009,04,15,07,48,4.70
2009,04,15,07,49,4.80
2009,04,15,07,50,4.80
2009,04,15,07,51,4.90
2009,04,15,07,52,5.00
2009,04,15,07,53,5.10
2009,04,15,07,54,5.20
2009,04,15,07,55,5.30
2009,04,15,07,56,5.30
2009,04,15,07,57,5.30
2009,04,15,07,58,5.30
2009,04,15,07,59,5.30
2009,04,15,08,00,5.40
2009,04,15,08,01,5.40
2009,04,15,08,02,5.40
2009,04,15,08,03,5.40
2009,04,15,08,04,5.50
2009,04,15,08,05,5.50
2009,04,15,08,06,5.50
2009,04,15,08,07,5.60
2009,04,15,08,08,5.60
2009,04,15,08,09,5.70
2009,04,15,08,10,5.70
2009,04,15,08,11,5.70
2009,04,15,08,12,5.70
2009,04,15,08,13,5.80
2009,04,15,08,14,5.80
2009,04,15,08,15,5.90
2009,04,15,08,16,5.90
2009,04,15,08,17,6.00
2009,04,15,08,18,6.10
2009,04,15,08,19,6.20
2009,04,15,08,20,6.30
2009,04,15,08,21,6.30
2009,04,15,08,22,6.40
2009,04,15,08,23,6.50
2009,04,15,08,24,6.60
2009,04,15,08,25,6.70
2009,04,15,08,26,6.70
2009,04,15,08,27,6.80
2009,04,15,08,28,6.90
2009,04,15,08,29,7.00
2009,04,15,08,30,7.10
2009,04,15,08,31,7.10
2009,04,15,08,32,7.20
2009,04,15,08,33,7.30
2009,04,15,08,34,7.30
2009,04,15,08,35,7.40
2009,04,15,08,36,7.50
2009,04,15,08,37,7.50
2009,04,15,08,38,7.60
2009,04,15,08,39,7.60
2009,04,15,08,40,7.60
2009,04,15,08,41,7.60
2009,04,15,08,42,7.60
2009,04,15,08,43,7.60
2009,04,15,08,44,7.60
2009,04,15,08,45,7.60
2009,04,15,08,46,7.60
2009,04,15,08,47,7.60
2009,04,15,08,48,7.70
2009,04,15,08,49,7.70
2009,04,15,08,50,7.70
2009,04,15,08,51,7.80
2009,04,15,08,52,7.80
2009,04,15,08,53,7.90
2009,04,15,08,54,7.90
2009,04,15,08,55,8.00
2009,04,15,08,56,8.00
2009,04,15,08,57,8.00
2009,04,15,08,58,8.00
2009,04,15,08,59,8.10
2009,04,15,09,00,8.10
2009,04,15,09,01,8.20
2009,04,15,09,02,8.30
2009,04,15,09,03,8.30
2009,04,15,09,04,8.50
2009,04,15,09,05,8.50
2009,04,15,09,06,8.60
2009,04,15,09,07,8.70
2009,04,15,09,08,8.70
2009,04,15,09,09,8.70
2009,04,15,09,10,8.70
2009,04,15,09,11,8.70
2009,04,15,09,12,8.70
2009,04,15,09,13,8.70
2009,04,15,09,14,8.80
2009,04,15,09,15,8.80
2009,04,15,09,16,8.90
2009,04,15,09,17,8.90
2009,04,15,09,18,8.90
2009,04,15,09,19,8.90
2009,04,15,09,20,8.90
2009,04,15,09,21,8.90
2009,04,15,09,22,9.00
2009,04,15,09,23,8.90
2009,04,15,09,24,8.80
2009,04,15,09,25,8.70
2009,04,15,09,26,8.70
2009,04,15,09,27,8.70
2009,04,15,09,28,8.70
2009,04,15,09,29,8.70
2009,04,15,09,30,8.90
2009,04,15,09,31,8.90
2009,04,15,09,32,9.00
2009,04,15,09,33,8.90
2009,04,15,09,34,8.80
2009,04,15,09,35,8.70
2009,04,15,09,36,8.70
2009,04,15,09,37,8.70
2009,04,15,09,38,8.70
2009,04,15,09,39,8.80
2009,04,15,09,40,8.90
2009,04,15,09,41,8.90
2009,04,15,09,42,8.90
2009,04,15,09,43,8.90
2009,04,15,09,44,8.90
2009,04,15,09,45,9.00
2009,04,15,09,46,8.90
2009,04,15,09,47,8.90
2009,04,15,09,48,8.90
2009,04,15,09,49,8.90
2009,04,15,09,50,8.90
2009,04,15,09,51,9.00
2009,04,15,09,52,9.00
2009,04,15,09,53,9.10
2009,04,15,09,54,9.10
2009,04,15,09,55,9.10
2009,04,15,09,56,9.10
2009,04,15,09,57,9.10
2009,04,15,09,58,9.20
2009,04,15,09,59,9.30
2009,04,15,10,00,9.40
2009,04,15,10,01,9.50
2009,04,15,10,02,9.60
2009,04,15,10,03,9.60
2009,04,15,10,04,9.70
2009,04,15,10,05,9.70
2009,04,15,10,06,9.60
2009,04,15,10,07,9.60
2009,04,15,10,08,9.70
2009,04,15,10,09,9.70
2009,04,15,10,10,9.90
2009,04,15,10,11,9.90
2009,04,15,10,12,9.90
2009,04,15,10,13,10.10
2009,04,15,10,14,10.10
2009,04,15,10,15,10.10
2009,04,15,10,16,10.00
2009,04,15,10,17,9.90
2009,04,15,10,18,9.90
2009,04,15,10,19,9.90
2009,04,15,10,20,9.90
2009,04,15,10,21,9.80
2009,04,15,10,22,9.70
2009,04,15,10,23,9.70
2009,04,15,10,24,9.70
2009,04,15,10,25,9.70
2009,04,15,10,26,9.70
2009,04,15,10,27,9.70
2009,04,15,10,28,9.70
2009,04,15,10,29,9.60
2009,04,15,10,30,9.50
2009,04,15,10,31,9.40
2009,04,15,10,32,9.30
2009,04,15,10,33,9.30
2009,04,15,10,34,9.20
2009,04,15,10,35,9.10
2009,04,15,10,36,9.10
2009,04,15,10,37,9.00
2009,04,15,10,38,8.90
2009,04,15,10,39,9.00
2009,04,15,10,40,9.00
2009,04,15,10,41,9.10
2009,04,15,10,42,9.20
2009,04,15,10,43,9.20
2009,04,15,10,44,9.20
2009,04,15,10,45,9.20
2009,04,15,10,46,9.20
2009,04,15,10,47,9.10
2009,04,15,10,48,9.10
2009,04,15,10,49,9.20
2009,04,15,10,50,9.20
2009,04,15,10,51,9.20
2009,04,15,10,52,9.20
2009,04,15,10,53,9.30
2009,04,15,10,54,9.40
2009,04,15,10,55,9.40
2009,04,15,10,56,9.40
2009,04,15,10,57,9.50
2009,04,15,10,58,9.50
2009,04,15,10,59,9.30
2009,04,15,11,00,9.20
2009,04,15,11,01,9.20
2009,04,15,11,02,9.00
2009,04,15,11,03,9.00
2009,04,15,11,04,9.00
2009,04,15,11,05,9.00
2009,04,15,11,06,8.90
2009,04,15,11,07,8.80
2009,04,15,11,08,8.70
2009,04,15,11,09,8.70
2009,04,15,11,10,8.70
2009,04,15,11,11,8.70
2009,04,15,11,12,8.70
2009,04,15,11,13,8.70
2009,04,15,11,14,8.70
2009,04,15,11,15,8.70
2009,04,15,11,16,8.70
2009,04,15,11,17,8.60
2009,04,15,11,18,8.70
2009,04,15,11,19,8.70
2009,04,15,11,20,8.70
2009,04,15,11,21,8.80
2009,04,15,11,22,9.00
2009,04,15,11,23,9.20
2009,04,15,11,24,9.30
2009,04,15,11,25,9.40
2009,04,15,11,26,9.30
2009,04,15,11,27,9.40
2009,04,15,11,28,9.40
2009,04,15,11,29,9.40
2009,04,15,11,30,9.40
2009,04,15,11,31,9.50
2009,04,15,11,32,9.40
2009,04,15,11,33,9.40
2009,04,15,11,34,9.40
2009,04,15,11,35,9.50
2009,04,15,11,36,9.60
2009,04,15,11,37,9.60
2009,04,15,11,38,9.50
2009,04,15,11,39,9.50
2009,04,15,11,40,9.50
2009,04,15,11,41,9.40
2009,04,15,11,42,9.50
2009,04,15,11,43,9.60
2009,04,15,11,44,9.70
2009,04,15,11,45,9.60
2009,04,15,11,46,9.60
2009,04,15,11,47,9.60
2009,04,15,11,48,9.60
2009,04,15,11,49,9.60
2009,04,15,11,50,9.70
2009,04,15,11,51,9.60
2009,04,15,11,52,9.50
2009,04,15,11,53,9.40
2009,04,15,11,54,9.30
2009,04,15,11,55,9.20
2009,04,15,11,56,9.20
2009,04,15,11,57,9.20
2009,04,15,11,58,9.20
2009,04,15,11,59,9.20
2009,04,15,12,00,9.20
2009,04,15,12,01,9.20
2009,04,15,12,02,9.20
2009,04,15,12,03,9.30
2009,04,15,12,04,9.50
2009,04,15,12,05,9.70
2009,04,15,12,06,9.60
2009,04,15,12,07,9.70
2009,04,15,12,08,9.60
2009,04,15,12,09,9.60
2009,04,15,12,10,9.50
2009,04,15,12,11,9.50
2009,04,15,12,12,9.50
2009,04,15,12,13,9.50
2009,04,15,12,14,9.60
2009,04,15,12,15,9.60
2009,04,15,12,16,9.40
2009,04,15,12,17,9.30
2009,04,15,12,18,9.40
2009,04,15,12,19,9.50
2009,04,15,12,20,9.50
2009,04,15,12,21,9.60
2009,04,15,12,22,9.70
2009,04,15,12,23,9.80
2009,04,15,12,24,9.90
2009,04,15,12,25,10.10
2009,04,15,12,26,10.20
2009,04,15,12,27,10.30
2009,04,15,12,28,10.40
2009,04,15,12,29,10.40
2009,04,15,12,30,10.40
2009,04,15,12,31,10.30
2009,04,15,12,32,10.40
2009,04,15,12,33,10.40
2009,04,15,12,34,10.50
2009,04,15,12,35,10.60
2009,04,15,12,36,10.70
2009,04,15,12,37,10.80
2009,04,15,12,38,10.90
2009,04,15,12,39,11.00
2009,04,15,12,40,11.10
2009,04,15,12,41,11.00
2009,04,15,12,42,10.90
2009,04,15,12,43,10.90
2009,04,15,12,44,10.70
2009,04,15,12,45,10.60
2009,04,15,12,46,10.70
2009,04,15,12,47,10.80
2009,04,15,12,48,11.00
2009,04,15,12,49,11.20
2009,04,15,12,50,11.40
2009,04,15,12,51,11.40
2009,04,15,12,52,11.60
2009,04,15,12,53,11.60
2009,04,15,12,54,11.70
2009,04,15,12,55,11.60
2009,04,15,12,56,11.60
2009,04,15,12,57,11.50
2009,04,15,12,58,11.40
2009,04,15,12,59,11.40
2009,04,15,13,00,11.30
2009,04,15,13,01,11.20
2009,04,15,13,02,11.20
2009,04,15,13,03,11.30
2009,04,15,13,04,11.10
2009,04,15,13,05,10.90
2009,04,15,13,06,11.10
2009,04,15,13,07,11.00
2009,04,15,13,08,11.10
2009,04,15,13,09,11.20
2009,04,15,13,10,11.40
2009,04,15,13,11,11.40
2009,04,15,13,12,11.60
2009,04,15,13,13,11.60
2009,04,15,13,14,11.70
2009,04,15,13,15,11.80
2009,04,15,13,16,11.90
2009,04,15,13,17,11.90
2009,04,15,13,18,11.90
2009,04,15,13,19,11.80
2009,04,15,13,20,11.70
2009,04,15,13,21,11.80
2009,04,15,13,22,11.80
2009,04,15,13,23,11.80
2009,04,15,13,24,11.80
2009,04,15,13,25,11.90
2009,04,15,13,26,12.10
2009,04,15,13,27,12.20
2009,04,15,13,28,12.20
2009,04,15,13,29,12.20
2009,04,15,13,30,12.20
2009,04,15,13,31,12.10
2009,04,15,13,32,12.20
2009,04,15,13,33,12.30
2009,04,15,13,34,12.40
2009,04,15,13,35,12.60
2009,04,15,13,36,12.50
2009,04,15,13,37,12.50
2009,04,15,13,38,12.50
2009,04,15,13,39,12.60
2009,04,15,13,40,12.70
2009,04,15,13,41,12.80
2009,04,15,13,42,12.70
2009,04,15,13,43,12.40
2009,04,15,13,44,12.10
2009,04,15,13,45,11.90
2009,04,15,13,46,11.60
2009,04,15,13,47,11.60
2009,04,15,13,48,11.70
2009,04,15,13,49,11.80
2009,04,15,13,50,11.90
2009,04,15,13,51,11.90
2009,04,15,13,52,11.90
2009,04,15,13,53,11.80
2009,04,15,13,54,11.70
2009,04,15,13,55,11.80
2009,04,15,13,56,11.80
2009,04,15,13,57,11.90
2009,04,15,13,58,11.90
2009,04,15,13,59,11.70
2009,04,15,14,00,11.60
2009,04,15,14,01,11.70
2009,04,15,14,02,11.80
2009,04,15,14,03,11.90
2009,04,15,14,04,12.00
2009,04,15,14,05,12.00
2009,04,15,14,06,12.00
2009,04,15,14,07,11.90
2009,04,15,14,08,11.80
2009,04,15,14,09,11.90
2009,04,15,14,10,11.90
2009,04,15,14,11,11.80
2009,04,15,14,12,11.80
2009,04,15,14,13,11.80
2009,04,15,14,14,11.80
2009,04,15,14,15,12.00
2009,04,15,14,16,12.10
2009,04,15,14,17,12.10
2009,04,15,14,18,12.00
2009,04,15,14,19,12.00
2009,04,15,14,20,11.90
2009,04,15,14,21,11.90
2009,04,15,14,22,11.80
2009,04,15,14,23,11.80
2009,04,15,14,24,11.80
2009,04,15,14,25,11.80
2009,04,15,14,26,11.80
2009,04,15,14,27,11.80
2009,04,15,14,28,11.80
2009,04,15,14,29,11.60
2009,04,15,14,30,11.40
2009,04,15,14,31,11.50
2009,04,15,14,32,11.40
2009,04,15,14,33,11.20
2009,04,15,14,34,11.10
2009,04,15,14,35,11.20
2009,04,15,14,36,11.30
2009,04,15,14,37,11.40
2009,04,15,14,38,11.50
2009,04,15,14,39,11.70
2009,04,15,14,40,11.80
2009,04,15,14,41,11.80
2009,04,15,14,42,11.70
2009,04,15,14,43,11.80
2009,04,15,14,44,11.80
2009,04,15,14,45,11.80
2009,04,15,14,46,11.80
2009,04,15,14,47,11.90
2009,04,15,14,48,12.00
2009,04,15,14,49,12.00
2009,04,15,14,50,12.00
2009,04,15,14,51,12.00
2009,04,15,14,52,11.90
2009,04,15,14,53,11.80
2009,04,15,14,54,11.80
2009,04,15,14,55,11.70
2009,04,15,14,56,11.80
2009,04,15,14,57,11.90
2009,04,15,14,58,12.10
2009,04,15,14,59,12.10
2009,04,15,15,00,12.00
2009,04,15,15,01,11.90
2009,04,15,15,02,11.80
2009,04,15,15,03,11.80
2009,04,15,15,04,11.60
2009,04,15,15,05,11.60
2009,04,15,15,06,11.70
2009,04,15,15,07,11.90
2009,04,15,15,08,12.00
2009,04,15,15,09,12.00
2009,04,15,15,10,11.90
2009,04,15,15,11,11.80
2009,04,15,15,12,11.60
2009,04,15,15,13,11.50
2009,04,15,15,14,11.60
2009,04,15,15,15,11.60
2009,04,15,15,16,11.60
2009,04,15,15,17,11.60
2009,04,15,15,18,11.60
2009,04,15,15,19,11.70
2009,04,15,15,20,11.80
2009,04,15,15,21,11.80
2009,04,15,15,22,11.80
2009,04,15,15,23,11.70
2009,04,15,15,24,11.60
2009,04,15,15,25,11.50
2009,04,15,15,26,11.60
2009,04,15,15,27,11.60
2009,04,15,15,28,11.80
2009,04,15,15,29,11.90
2009,04,15,15,30,12.00
2009,04,15,15,31,12.10
2009,04,15,15,32,12.20
2009,04,15,15,33,12.20
2009,04,15,15,34,12.20
2009,04,15,15,35,12.10
2009,04,15,15,36,12.10
2009,04,15,15,37,12.10
2009,04,15,15,38,12.10
2009,04,15,15,39,12.00
2009,04,15,15,40,12.00
2009,04,15,15,41,11.80
2009,04,15,15,42,11.80
2009,04,15,15,43,11.60
2009,04,15,15,44,11.70
2009,04,15,15,45,11.80
2009,04,15,15,46,11.90
2009,04,15,15,47,12.00
2009,04,15,15,48,12.20
2009,04,15,15,49,12.30
2009,04,15,15,50,12.20
2009,04,15,15,51,12.20
2009,04,15,15,52,12.30
2009,04,15,15,53,12.10
2009,04,15,15,54,12.10
2009,04,15,15,55,12.00
2009,04,15,15,56,12.00
2009,04,15,15,57,12.00
2009,04,15,15,58,12.10
2009,04,15,15,59,12.20
2009,04,15,16,00,12.30
2009,04,15,16,01,12.30
2009,04,15,16,02,12.20
2009,04,15,16,03,12.20
2009,04,15,16,04,12.20
2009,04,15,16,05,12.20
2009,04,15,16,06,12.00
2009,04,15,16,07,11.80
2009,04,15,16,08,11.80
2009,04,15,16,09,11.80
2009,04,15,16,10,11.80
2009,04,15,16,11,11.80
2009,04,15,16,12,11.80
2009,04,15,16,13,11.80
2009,04,15,16,14,11.90
2009,04,15,16,15,12.00
2009,04,15,16,16,12.00
2009,04,15,16,17,12.10
2009,04,15,16,18,12.10
2009,04,15,16,19,12.20
2009,04,15,16,20,12.30
2009,04,15,16,21,12.30
2009,04,15,16,22,12.30
2009,04,15,16,23,12.30
2009,04,15,16,24,12.30
2009,04,15,16,25,12.30
2009,04,15,16,26,12.20
2009,04,15,16,27,12.20
2009,04,15,16,28,12.20
2009,04,15,16,29,12.20
2009,04,15,16,30,12.20
2009,04,15,16,31,12.20
2009,04,15,16,32,12.30
2009,04,15,16,33,12.40
2009,04,15,16,34,12.40
2009,04,15,16,35,12.50
2009,04,15,16,36,12.50
2009,04,15,16,37,12.50
2009,04,15,16,38,12.50
2009,04,15,16,39,12.50
2009,04,15,16,40,12.50
2009,04,15,16,41,12.40
2009,04,15,16,42,12.30
2009,04,15,16,43,12.30
2009,04,15,16,44,12.30
2009,04,15,16,45,12.20
2009,04,15,16,46,12.10
2009,04,15,16,47,12.10
2009,04,15,16,48,12.20
2009,04,15,16,49,12.20
2009,04,15,16,50,12.20
2009,04,15,16,51,12.30
2009,04,15,16,52,12.30
2009,04,15,16,53,12.40
2009,04,15,16,54,12.50
2009,04,15,16,55,12.60
2009,04,15,16,56,12.80
2009,04,15,16,57,12.80
2009,04,15,16,58,12.80
2009,04,15,16,59,12.80
2009,04,15,17,00,12.80
2009,04,15,17,01,12.80
2009,04,15,17,02,12.80
2009,04,15,17,03,12.90
2009,04,15,17,04,12.90
2009,04,15,17,05,13.00
2009,04,15,17,06,13.00
2009,04,15,17,07,13.10
2009,04,15,17,08,13.10
2009,04,15,17,09,13.10
2009,04,15,17,10,13.10
2009,04,15,17,11,13.10
2009,04,15,17,12,13.20
2009,04,15,17,13,13.20
2009,04,15,17,14,13.30
2009,04,15,17,15,13.30
2009,04,15,17,16,13.30
2009,04,15,17,17,13.30
2009,04,15,17,18,13.20
2009,04,15,17,19,13.20
2009,04,15,17,20,13.30
2009,04,15,17,21,13.30
2009,04,15,17,22,13.40
2009,04,15,17,23,13.50
2009,04,15,17,24,13.50
2009,04,15,17,25,13.60
2009,04,15,17,26,13.60
2009,04,15,17,27,13.70
2009,04,15,17,28,13.70
2009,04,15,17,29,13.60
2009,04,15,17,30,13.60
2009,04,15,17,31,13.60
2009,04,15,17,32,13.60
2009,04,15,17,33,13.60
2009,04,15,17,34,13.70
2009,04,15,17,35,13.70
2009,04,15,17,36,13.70
2009,04,15,17,37,13.70
2009,04,15,17,38,13.70
2009,04,15,17,39,13.60
2009,04,15,17,40,13.50
2009,04,15,17,41,13.40
2009,04,15,17,42,13.30
2009,04,15,17,43,13.30
2009,04,15,17,44,13.20
2009,04,15,17,45,13.10
2009,04,15,17,46,13.10
2009,04,15,17,47,13.10
2009,04,15,17,48,13.00
2009,04,15,17,49,13.00
2009,04,15,17,50,12.90
2009,04,15,17,51,12.90